Weather observations for the past three days for
Sylvania, Plantation Airpark
Imperial (Metric)
Date Time (edt) Wind (mph) Vis. (mi.) Weather Sky Cond. Temperature (ºF) Relative Humidity Wind Chill (°F) Heat Index (°F) Pressure Precipitation (in)
Air Dwpt 6 hour altimeter (in) sea level (mb) 1 hr 3 hr 6 hr
Max. Min.
25 09:35 Calm 10.00 Fair CLR 80.1 77.4 92% 86 30.19 0.0
25 09:15 Calm 10.00 Fair CLR 78.4 77.7 98% 82 30.2 0.0
25 08:55 Calm 10.00 Fair CLR 77 76.5 98% 78 30.2 0.0
25 08:35 Calm 10.00 Light Rain SCT043 SCT060 76.1 75.4 98% 75 30.21 0.0
25 08:15 Calm 10.00 Light Drizzle BKN043 BKN050 75.6 75.2 99% 74 30.2 0.0
25 07:55 Calm 10.00 Mostly Cloudy SCT039 BKN045 BKN055 75.2 74.7 76.1 74.7 98% 73 30.2 0.0
25 07:35 Calm 10.00 Fair CLR 75.2 74.5 98% 73 30.2 0.0
25 07:15 Calm 7.00 Fair CLR 75.2 74.5 98% 73 30.19 0.0
25 06:55 Calm 10.00 Fair CLR 75.2 74.7 98% 73 30.19 0.0
25 06:35 Calm 10.00 Fair CLR 74.8 74.3 98% 30.19 0.0
25 06:15 Calm 10.00 Partly Cloudy SCT095 74.7 74.3 99% 30.18 0.0
25 05:55 Calm 10.00 Light Drizzle SCT095 74.8 74.3 98% 30.18 0.0
25 05:35 Calm 10.00 Partly Cloudy SCT120 74.8 74.3 98% 30.17 0.0
25 05:15 Calm 10.00 Partly Cloudy SCT110 75.2 74.5 98% 73 30.17 0.0
25 04:55 Calm 10.00 Partly Cloudy SCT110 74.8 74.3 98% 30.18 0.0
25 04:35 Calm 10.00 Light Drizzle SCT110 75.2 74.5 98% 73 30.18 0.0
25 04:15 Calm 10.00 Fair CLR 75.2 74.5 98% 73 30.18 0.0
25 03:55 Calm 10.00 Fair CLR 75.2 74.5 98% 73 30.18 0.0
25 03:35 Calm 10.00 Partly Cloudy SCT003 75.2 74.7 98% 73 30.18 0.0
25 03:15 Calm 10.00 Fair CLR 75.2 74.7 98% 73 30.18 0.0
25 02:55 Calm 10.00 Fair CLR 75.4 74.8 98% 73 30.19 0.0
25 02:35 Calm 10.00 Partly Cloudy SCT080 SCT110 75.4 74.8 98% 73 30.2 0.0
25 02:15 Calm 10.00 Light Rain SCT070 BKN090 BKN110 75.6 75.2 99% 74 30.22 0.0
25 01:55 Calm 10.00 Light Rain SCT060 SCT070 BKN090 76.1 75.4 77.9 75.6 98% 75 30.22 0.0 0.03 0.4
25 01:35 Calm 10.00 Rain SCT040 SCT055 BKN085 76.1 75.4 98% 75 30.22 0.0 0.02
25 01:15 Calm 10.00 Thunderstorm Rain in Vicinity SCT044 SCT065 SCT090 76.1 75.4 98% 75 30.22 0.0 0.01
25 00:55 Calm 10.00 Thunderstorm Light Rain in Vicinity SCT110 76.1 75.4 98% 75 30.23 0.0 0.01
25 00:35 Calm 10.00 Light Rain SCT110 76.1 75.4 98% 75 30.23 0.0 0.01
25 00:15 Calm 10.00 Light Drizzle SCT055 SCT065 76.1 75.4 98% 75 30.24 0.0
24 23:55 Calm 10.00 Light Rain SCT050 BKN065 BKN070 76.3 75.7 98% 76 30.23 0.0 0.05
24 23:35 Calm 7.00 Light Rain SCT043 BKN050 OVC065 76.1 75.6 98% 75 30.23 0.0 0.04
24 23:15 Calm 7.00 Light Rain BKN055 BKN070 OVC120 76.1 75.6 98% 75 30.24 0.0 0.01
24 22:55 Calm 10.00 Light Rain SCT030 SCT055 BKN075 76.1 75.6 98% 75 30.24 0.0 0.02 0.31
24 22:35 Calm 10.00 Light Drizzle SCT030 BKN075 BKN080 76.1 75.6 98% 75 30.24 0.0 0.01
24 22:15 Calm 10.00 Rain SCT050 BKN065 OVC075 76.1 75.4 98% 75 30.24 0.0 0.01
24 21:55 Calm 10.00 Thunderstorm Light Rain in Vicinity SCT048 BKN065 OVC075 76.1 75.4 98% 75 30.23 0.0 0.08
24 21:35 Calm 10.00 Thunderstorm Light Rain in Vicinity SCT016 BKN041 OVC055 75.7 75.2 98% 74 30.22 0.0 0.07
24 21:15 NW 7 7.00 Thunderstorm Heavy Rain SCT004 SCT016 BKN031 77 76.5 98% 78 30.22 0.0 0.03
24 20:55 Calm 2.50 Thunderstorm Rain SCT006 BKN025 OVC042 77.4 76.8 98% 79 30.21 0.0 0.21
24 20:35 Calm 4.00 Thunderstorm Heavy Rain SCT015 SCT030 BKN038 76.6 76.3 99% 77 30.2 0.0 0.07
24 20:15 Calm 10.00 Thunderstorm SCT031 SCT037 SCT046 77.5 77 98% 79 30.18 0.0
24 19:55 Calm 10.00 Thunderstorm SCT032 SCT046 SCT055 77.5 77 88.7 76.6 98% 79 30.17 0.0 0.18 0.84
24 19:35 Calm 10.00 Thunderstorm Light Rain CLR 78.4 77.9 98% 82 30.17 0.0 0.18
24 19:15 Calm 0.75 Thunderstorm Light Rain BKN005 BKN010 78.4 78.1 99% 82 30.18 0.0 0.18
24 18:55 S 8 G 22 0.75 Thunderstorm Heavy Rain BKN005 OVC010 76.8 76.3 98% 77 30.17 0.0 0.58
24 18:35 Calm 10.00 Thunderstorm CLR 81.1 80.6 98% 91 30.14 0.0
24 18:15 Calm 10.00 Partly Cloudy SCT042 81.5 80.6 97% 92 30.14 0.0
24 17:55 Calm 10.00 Thunderstorm in Vicinity SCT042 81.9 80.8 97% 93 30.14 0.0
24 17:35 Calm 10.00 Fair CLR 81.5 80.1 95% 91 30.15 0.0
24 17:15 Calm 10.00 Partly Cloudy SCT042 SCT050 SCT065 81.5 81 98% 92 30.14 0.0
24 16:55 NW 5 10.00 Light Rain SCT034 SCT044 BKN060 81.5 80.6 97% 92 30.16 0.0
24 16:35 Calm 10.00 Mostly Cloudy SCT039 SCT050 BKN110 81.5 79.2 93% 91 30.15 0.0
24 16:15 W 3 10.00 Light Rain SCT035 SCT044 BKN070 82.9 80.1 91% 95 30.16 0.0
24 15:55 Calm 10.00 Partly Cloudy SCT110 84.7 81.7 91% 101 30.16 0.0
24 15:35 Calm 10.00 Fair CLR 85.6 80.2 84% 101 30.17 0.0
24 15:15 Calm 10.00 Thunderstorm in Vicinity CLR 85.6 78.6 80% 99 30.17 0.0
24 14:55 Calm 10.00 Thunderstorm in Vicinity SCT085 86.2 77.4 75% 98 30.17 0.0
24 14:35 SE 5 10.00 Fair CLR 87.1 77.5 73% 100 30.17 0.0
24 14:15 Calm 10.00 Partly Cloudy SCT044 SCT050 86.9 77.7 74% 99 30.18 0.0
24 13:55 SE 6 10.00 Thunderstorm SCT044 SCT050 86 76.5 91.4 77.9 73% 97 30.19 0.0
24 13:35 Calm 10.00 Thunderstorm SCT025 SCT030 BKN075 84.9 79.2 83% 98 30.2 0.0
24 12:55 Calm 10.00 Thunderstorm SCT039 SCT047 SCT065 90.5 77.2 65% 104 30.19 0.0
24 12:35 Calm 10.00 Partly Cloudy SCT026 SCT034 SCT070 91.2 78.1 65% 106 30.2 0.0
24 12:15 Calm 10.00 Mostly Cloudy SCT026 BKN032 BKN070 89.8 78.8 70% 105 30.21 0.0
24 11:55 Calm 10.00 Partly Cloudy SCT024 SCT029 SCT070 90.1 78.1 68% 105 30.22 0.0
24 11:35 Calm 10.00 Partly Cloudy SCT022 88.7 78.1 71% 103 30.22 0.0
24 11:15 Calm 10.00 Partly Cloudy SCT020 88.7 79 73% 104 30.22 0.0
24 10:55 Calm 10.00 Fair CLR 87.6 78.8 75% 102 30.22 0.0
24 10:35 Calm 10.00 Fair CLR 86.4 78.4 77% 100 30.21 0.0
24 10:15 Calm 10.00 Fair CLR 84.9 78.8 82% 97 30.21 0.0
24 09:55 Calm 10.00 Fair CLR 83.8 78.1 83% 95 30.21 0.0
24 09:35 Calm 10.00 Fair CLR 83.5 78.3 84% 94 30.22 0.0
24 09:15 Calm 10.00 Fair CLR 82.8 78.6 87% 93 30.22 0.0
24 08:55 Calm 10.00 Fair CLR 81.7 78.1 89% 90 30.22 0.0
24 08:35 Calm 10.00 Fair CLR 80.4 78.8 95% 88 30.21 0.0
24 08:15 Calm 10.00 Fair CLR 78.4 77.9 98% 82 30.21 0.0
24 07:55 Calm 10.00 Fair CLR 77.9 77.2 79.3 76.5 98% 80 30.2 0.0
24 07:35 Calm 7.00 Fair CLR 77 76.6 99% 78 30.2 0.0
24 07:15 Calm 7.00 Fair CLR 76.6 76.1 98% 77 30.19 0.0
24 06:55 Calm 7.00 Fair CLR 76.5 76.1 99% 76 30.19 0.0
24 06:35 Calm 5.00 Fog/Mist CLR 76.5 76.1 99% 76 30.19 0.0
24 06:15 Calm 7.00 Fair CLR 77 76.3 98% 78 30.18 0.0
24 05:55 Calm 7.00 Fair CLR 77 76.3 98% 78 30.17 0.0
24 05:35 Calm 10.00 Fair CLR 77.2 76.6 98% 78 30.17 0.0
24 05:15 Calm 10.00 Fair CLR 77.4 76.8 98% 79 30.17 0.0
24 04:55 Calm 10.00 Fair CLR 77.4 77 99% 79 30.17 0.0
24 04:35 Calm 10.00 Fair CLR 77.7 77 98% 80 30.17 0.0
24 04:15 Calm 10.00 Fair CLR 77.9 77.4 98% 80 30.17 0.0
24 03:55 Calm 10.00 Partly Cloudy SCT046 SCT080 78.3 77.9 99% 81 30.18 0.0
24 03:35 Calm 10.00 Mostly Cloudy SCT019 BKN048 BKN065 79 78.4 98% 84 30.19 0.0
24 03:15 Calm 10.00 Mostly Cloudy SCT013 SCT050 BKN065 78.8 78.1 98% 83 30.2 0.0
24 02:55 Calm 10.00 Fair CLR 78.8 78.1 98% 83 30.18 0.0
24 02:35 Calm 10.00 Thunderstorm in Vicinity CLR 79 78.4 98% 84 30.17 0.0
24 02:15 Calm 10.00 Fair CLR 79.2 78.8 99% 84 30.17 0.0
24 01:55 Calm 10.00 Partly Cloudy SCT048 79.3 78.8 88.3 79.3 98% 85 30.18 0.0
24 01:35 Calm 10.00 Partly Cloudy SCT048 79.7 78.8 97% 86 30.18 0.0
24 01:15 Calm 10.00 Fair CLR 79.9 78.8 97% 86 30.17 0.0
24 00:55 Calm 10.00 Fair CLR 80.2 78.8 95% 87 30.18 0.0
24 00:35 Calm 10.00 Fair CLR 80.6 78.3 93% 88 30.18 0.0
24 00:15 Calm 10.00 Fair CLR 80.6 78.3 93% 88 30.18 0.0
23 23:55 Calm 10.00 Fair CLR 80.8 78.1 92% 88 30.17 0.0
23 23:35 Calm 10.00 Fair CLR 81 78.3 92% 89 30.17 0.0
23 23:15 Calm 10.00 Fair CLR 81.1 78.4 92% 89 30.16 0.0
23 22:55 Calm 10.00 Fair CLR 81.7 78.8 91% 91 30.16 0.0
23 22:35 Calm 10.00 Fair CLR 82.4 79 89% 93 30.16 0.0
23 22:15 Calm 10.00 Fair CLR 82.6 79.7 91% 94 30.16 0.0
23 21:55 Calm 10.00 Fair CLR 82.9 80.6 93% 95 30.14 0.0
23 21:35 Calm 10.00 Fair CLR 83.1 80.6 92% 96 30.13 0.0
23 21:15 Calm 10.00 Fair CLR 83.5 80.6 91% 97 30.13 0.0
23 20:55 Calm 10.00 Fair CLR 84.2 79.9 87% 97 30.12 0.0
23 20:35 Calm 10.00 Fair CLR 85.3 79.2 82% 99 30.11 0.0
23 20:15 Calm 10.00 Fair CLR 86.2 78.1 77% 99 30.12 0.0
23 19:55 Calm 10.00 Fair CLR 88.3 75.2 93.4 88.3 65% 98 30.11 0.0
23 19:35 Calm 10.00 Fair CLR 90 74.7 61% 100 30.09 0.0
23 19:15 Calm 10.00 Fair CLR 91.2 73.8 57% 101 30.09 0.0
23 18:55 Calm 10.00 Fair CLR 91.4 72.9 55% 100 30.09 0.0
23 18:35 Calm 10.00 Fair CLR 92.3 72.5 53% 101 30.08 0.0
23 18:15 Calm 10.00 Fair CLR 93.2 73.8 53% 103 30.07 0.0
23 17:55 Calm 10.00 Fair CLR 93.2 73 52% 102 30.07 0.0
23 17:35 Calm 10.00 Fair CLR 93.2 73.4 53% 103 30.07 0.0
23 17:15 Calm 10.00 Fair CLR 93.2 73.2 52% 103 30.07 0.0
23 16:55 Calm 10.00 Fair CLR 93.4 73.4 52% 103 30.08 0.0
23 16:35 Calm 10.00 Fair CLR 93 73.6 53% 103 30.08 0.0
23 16:15 W 8 10.00 Fair CLR 93.2 73.2 52% 103 30.09 0.0
23 15:55 Calm 10.00 Fair CLR 92.7 73.8 54% 102 30.09 0.0
23 15:35 Calm 10.00 Fair CLR 92.7 74.8 56% 104 30.1 0.0
23 15:15 Calm 10.00 Fair CLR 90 75 62% 100 30.11 0.0
23 14:55 W 7 10.00 Partly Cloudy SCT041 SCT070 90.9 74.7 59% 101 30.11 0.0
23 14:35 W 5 10.00 Partly Cloudy SCT039 91.9 74.3 56% 102 30.12 0.0
23 14:15 Calm 10.00 Partly Cloudy SCT037 91 75.7 61% 103 30.12 0.0
23 13:55 Calm 10.00 Partly Cloudy SCT037 91.4 74.8 91.4 75.9 58% 102 30.13 0.0
23 13:35 Calm 10.00 Partly Cloudy SCT037 91.2 75.7 61% 103 30.14 0.0
23 13:15 Calm 10.00 Partly Cloudy SCT037 90 75 62% 100 30.14 0.0
23 12:55 Calm 10.00 Fair CLR 89.1 72.9 59% 97 30.14 0.0
23 12:35 Calm 10.00 Fair CLR 89.1 73.6 60% 98 30.15 0.0
23 12:15 Calm 10.00 Fair CLR 88.5 74.3 63% 98 30.15 0.0
23 11:55 Calm 10.00 Fair CLR 87.8 74.3 64% 97 30.15 0.0
23 11:35 Calm 10.00 Fair CLR 86.9 74.8 67% 96 30.15 0.0
23 11:15 Calm 10.00 Fair CLR 87.1 75.9 70% 98 30.15 0.0
23 10:55 Calm 10.00 Fair CLR 86.2 76.3 72% 97 30.15 0.0
23 10:35 Calm 10.00 Fair CLR 85.3 75.2 72% 94 30.14 0.0
23 10:15 Calm 10.00 Fair CLR 84.4 75.6 75% 93 30.14 0.0
23 09:55 Calm 10.00 Fair CLR 83.5 76.8 80% 93 30.14 0.0
23 09:35 Calm 10.00 Fair CLR 82.4 77.9 86% 92 30.14 0.0
23 09:15 Calm 10.00 Fair CLR 81.3 77.7 89% 89 30.14 0.0
23 08:55 Calm 10.00 Fair CLR 80.1 77.2 91% 86 30.14 0.0
23 08:35 Calm 10.00 Fair CLR 78.8 77.7 97% 83 30.14 0.0
23 08:15 Calm 10.00 Fair CLR 77.2 76.6 98% 78 30.14 0.0
23 07:55 Calm 10.00 Fair CLR 75.7 75.2 75.7 72.5 98% 74 30.14 0.0
23 07:35 Calm 10.00 Fair CLR 74.7 74.1 98% 30.13 0.0
23 07:15 Calm 10.00 Fair CLR 73.8 73.4 99% 30.12 0.0
23 06:55 Calm 10.00 Fair CLR 73 72.5 98% 30.12 0.0
23 06:35 Calm 7.00 Fair CLR 72.5 72 98% 30.11 0.0
23 06:15 Calm 10.00 Fair CLR 72.7 72.3 99% 30.11 0.0
23 05:55 Calm 10.00 Fair CLR 72.7 72.1 98% 30.11 0.0
23 05:35 Calm 10.00 Fair CLR 72.9 72.5 99% 30.1 0.0
23 05:15 Calm 10.00 Fair CLR 73 72.5 98% 30.09 0.0
23 04:55 Calm 10.00 Fair CLR 73.6 73.2 99% 30.08 0.0
23 04:35 Calm 10.00 Fair CLR 73.9 73.4 98% 30.08 0.0
23 04:15 Calm 10.00 Fair CLR 73.9 73.4 98% 30.08 0.0
23 03:55 Calm 10.00 Fair CLR 73.8 73.4 99% 30.08 0.0
23 03:35 Calm 10.00 Fair CLR 73.9 73.4 98% 30.08 0.0
23 03:15 Calm 10.00 Fair CLR 73.6 73.2 99% 30.08 0.0
23 02:55 Calm 10.00 Fair CLR 74.3 73.6 98% 30.08 0.0
23 02:35 Calm 10.00 Fair CLR 74.5 73.9 98% 30.08 0.0
23 02:15 Calm 10.00 Fair CLR 74.3 73.6 98% 30.08 0.0
23 01:55 Calm 10.00 Fair CLR 74.5 73.9 82.9 74.3 98% 30.09 0.0 0.06
23 01:35 Calm 10.00 Fair CLR 74.5 73.9 98% 30.09 0.0
23 01:15 Calm 10.00 Fair CLR 74.3 73.8 98% 30.08 0.0
23 00:55 Calm 10.00 Fair CLR 74.8 74.3 98% 30.08 0.0 0.01
23 00:35 Calm 10.00 Partly Cloudy SCT055 SCT065 SCT100 75.2 74.5 98% 73 30.09 0.0 0.01
23 00:15 Calm 10.00 Rain SCT060 BKN070 74.5 73.9 98% 30.09 0.0 0.01
22 23:55 Calm 10.00 Light Rain SCT050 BKN060 OVC070 74.5 73.9 98% 30.1 0.0 0.02
22 23:35 Calm 10.00 Rain SCT060 SCT075 74.5 73.9 98% 30.1 0.0
22 23:15 Calm 10.00 Fair CLR 75.2 74.5 98% 73 30.1 0.0
22 22:55 Calm 10.00 Light Rain CLR 75.7 75.2 98% 74 30.09 0.0 0.01 0.03
22 22:35 Calm 10.00 Partly Cloudy SCT095 75.7 75.2 98% 74 30.09 0.0 0.01
22 22:15 Calm 10.00 Light Rain SCT037 BKN070 OVC090 76.3 75.9 99% 76 30.08 0.0 0.01
22 21:55 Calm 7.00 Thunderstorm Rain in Vicinity SCT035 SCT046 BKN060 76.8 76.3 98% 77 30.08 0.0 0.02
22 21:35 W 3 10.00 Thunderstorm Drizzle in Vicinity SCT033 SCT060 BKN080 77.4 76.8 98% 79 30.09 0.0 0.01
22 21:15 Calm 10.00 Rain SCT031 SCT050 SCT070 79 76.3 91% 83 30.07 0.0
22 20:55 Calm 10.00 Thunderstorm in Vicinity CLR 79.7 76.8 91% 85 30.07 0.0
22 20:35 Calm 10.00 Partly Cloudy SCT043 80.1 76.8 90% 86 30.05 0.0
22 20:15 Calm 10.00 Partly Cloudy SCT043 81.9 77 85% 90 30.04 0.0
22 19:55 S 3 10.00 Fair CLR 83.1 76.1 90.7 83.1 79% 91 30.04 0.0
22 19:35 Calm 10.00 Thunderstorm in Vicinity CLR 88 76.5 69% 99 30.03 0.0
22 19:15 Calm 10.00 Fair CLR 88.9 74.8 63% 99 30.02 0.0
22 18:55 Calm 10.00 Fair CLR 89.6 75.2 63% 100 30.02 0.0
22 18:35 Calm 10.00 Fair CLR 89.8 73.9 60% 99 30.02 0.0
22 18:15 Calm 10.00 Fair CLR 89.8 73 58% 98 30.01 0.0
22 17:55 Calm 10.00 Partly Cloudy SCT036 90.1 74.7 60% 100 30.02 0.0
22 17:35 Calm 10.00 Partly Cloudy SCT036 90.7 75 60% 101 30.02 0.0
22 17:15 Calm 10.00 Fair CLR 88.9 74.5 63% 98 30.01 0.0
22 16:55 Calm 10.00 Fair CLR 90.3 73.9 59% 100 30.02 0.0
22 16:35 Calm 10.00 Fair CLR 90 74.1 60% 99 30.03 0.0
22 16:15 Calm 10.00 Fair CLR 89.6 74.5 61% 99 30.04 0.0
22 15:55 Calm 10.00 Partly Cloudy SCT032 88.9 74.3 62% 98 30.04 0.0
22 15:35 Calm 10.00 Mostly Cloudy BKN032 88 74.7 65% 97 30.05 0.0
22 15:15 Calm 10.00 Partly Cloudy SCT030 SCT035 88.2 75 65% 98 30.06 0.0
22 14:55 Calm 10.00 NULL NULL 88 75.9 68% 99 30.07 0.0
22 14:15 Calm 10.00 NULL NULL 85.5 76.8 75% 96 30.08 0.0
22 13:55 Calm 10.00 Overcast BKN022 OVC031 84.6 76.1 85.1 73.8 76% 94 30.09 0.0
22 13:35 Calm 10.00 Mostly Cloudy BKN020 BKN026 84.2 76.3 77% 93 30.1 0.0
22 13:15 Calm 10.00 Mostly Cloudy SCT018 BKN026 85.1 77.7 79% 96 30.1 0.0
22 12:55 Calm 10.00 Mostly Cloudy SCT014 BKN022 BKN028 83.8 76.6 79% 93 30.1 0.0
22 12:35 Calm 10.00 Overcast SCT014 OVC022 82.4 76.5 82% 90 30.11 0.0
22 12:15 Calm 10.00 Mostly Cloudy BKN014 82.4 77.2 84% 91 30.11 0.0
22 11:55 Calm 10.00 Overcast OVC014 81.7 76.1 83% 89 30.11 0.0
22 11:35 Calm 10.00 Overcast OVC012 81 77.2 88% 88 30.11 0.0
22 11:15 Calm 10.00 Overcast OVC010 79.7 76.8 91% 85 30.11 0.0
22 10:55 Calm 10.00 Overcast OVC008 79.5 76.6 91% 84 30.1 0.0
22 10:35 Calm 10.00 Overcast OVC008 78.8 76.8 94% 83 30.1 0.0
22 10:15 Calm 10.00 Overcast OVC008 78.1 77 97% 81 30.09 0.0
22 09:55 Calm 10.00 Overcast BKN006 OVC010 76.5 75.9 98% 76 30.09 0.0
Date Time (edt) Wind (mph) Vis. (mi.) Weather Sky Cond. Air Dwpt Max. Min. Relative Humidity Wind Chill (°F) Heat Index (°F) altimeter (in) sea level (mb) 1 hr 3 hr 6 hr
6 hour
Temperature (ºF) Pressure Precipitation (in)